Regional Weather Roundup
Issued by NWS

Home | Current Version | Previous Version | Text Only | Print | Product List | Glossary Off
Versions: 1 2 3 4 5 6 7 8 9 10 11 12 13 14 15 16 17 18 19 20 21 22 23 24 25 26 27 28 29 30 31 32 33 34 35 36 37 38 39 40 41 42 43 44 45 46 47 48 49 50

000
ASUS43 KOAX 270410
RWRNE

WEATHER ROUNDUP FOR NEBRASKA
NATIONAL WEATHER SERVICE OMAHA NE
1000 PM CST FRI DEC 26 2014

NOTES: SATELLITE DATA IS BEING USED TO AUGMENT CLOUD COVER ABOVE
       12000 FEET.
       "FAIR" INDICATES FEW OR NO CLOUDS BELOW 12,000 FEET WITH NO
       SIGNIFICANT WEATHER AND/OR OBSTRUCTIONS TO VISIBILITY.

  * THESE STATIONS DO NOT REPORT WEATHER SUCH AS RAIN...SNOW OR FOG.

NEZ001>004-019>022-054>056-270500-
NEBRASKA PANHANDLE

CITY           SKY/WX    TMP DP  RH WIND       PRES   REMARKS
SCOTTSBLUFF    LGT SNOW  17  14  88 W6        30.10R FOG     WCI   9
ALLIANCE       CLOUDY    17  15  92 N5        30.08R WCI  10
CHADRON        CLOUDY    18  14  84 CALM      30.14R
KIMBALL        LGT SNOW  13  11  92 W6        30.03R WCI   4
SIDNEY         LGT SNOW  15  12  88 W7        30.09R FOG     WCI   5
$$

NEZ057>060-069>072-079>082-270500-
SOUTHWEST NEBRASKA

CITY           SKY/WX    TMP DP  RH WIND       PRES   REMARKS
NORTH PLATTE   LGT SNOW  19  16  88 N5        30.13R FOG     WCI  12
IMPERIAL       LGT SNOW  18  14  84 NW6       30.14R FOG     WCI  10
LEXINGTON      LGT SNOW  22  19  91 NW12G17   30.13R WCI  10
MCCOOK         CLOUDY    20  16  84 N13       30.15R FOG     WCI   7
OGALLALA       LGT SNOW  19  16  88 N8        30.12R WCI   9
$$

NEZ005>010-023>029-035>040-094-270500-
NORTH CENTRAL NEBRASKA

CITY           SKY/WX    TMP DP  RH WIND       PRES   REMARKS
VALENTINE      LGT SNOW  18  14  84 NW10      30.13R FOG     WCI   6
AINSWORTH      LGT SNOW  18  16  91 N13       30.11R WCI   5
BROKEN BOW     SNOW      20  16  84 N12       30.11R VSB 1/2 WCI   8
O`NEILL        LGT SNOW  21  19  94 N12       30.12R WCI   9
ORD            LGT SNOW  20  17  88 NW15      30.11R VSB 1   WCI   6
THEDFORD       LGT SNOW  20  17  89 NW8       30.12R WCI  10
$$

NEZ041-046>049-061>064-073>077-083>087-270500-
SOUTH CENTRAL NEBRASKA

CITY           SKY/WX    TMP DP  RH WIND       PRES   REMARKS
GRAND ISLAND   LGT SNOW  22  19  89 NW13      30.11R FOG     WCI  10
AURORA         LGT SNOW  24  22  93 NW10      30.08R WCI  13
HASTINGS       LGT SNOW  22  19  89 NW14      30.09R FOG     WCI   9
HEBRON         LGT SNOW  27  24  89 NW10G18   30.07S WCI  17
HOLDREGE       LGT SNOW  22  19  89 N8        30.11R WCI  13
KEARNEY *      CLOUDY    21  18  86 NW14      30.11S WCI   8
YORK           LGT SNOW  25  23  93 N12       30.07R WCI  14
$$

NEZ011>018-030>034-042>045-270500-
NORTHEAST NEBRASKA

CITY           SKY/WX    TMP DP  RH WIND       PRES   REMARKS
NORFOLK        LGT SNOW  24  20  84 NW12      30.06R FOG     WCI  13
ALBION         LGT SNOW  23  19  83 N9G16     30.09R WCI  13
BLAIR          LGT SNOW  32  30  93 N8        30.00F WCI  24
COLUMBUS *     CLOUDY    25  18  74 N15       30.07R WCI  12
FREMONT        LGT SNOW  31  29  94 NW7       30.04R WCI  24
TEKAMAH        LGT SNOW  31  28  89 N16       30.04R FOG     WCI  20
WAYNE          LGT SNOW  24  22  90 N13       30.07R WCI  13
$$

NEZ050>053-065>068-078-088>093-270500-
SOUTHEAST NEBRASKA

CITY           SKY/WX    TMP DP  RH WIND       PRES   REMARKS
LINCOLN        LGT SNOW  30  29  96 N15       30.04R FOG     WCI  19
OMAHA EPPLEY   LGT SNOW  32  31  96 N8        30.03S FOG     WCI  25
BEATRICE       LGT SNOW  31  30  96 NW7       30.04R WCI  24
FALLS CITY     CLOUDY    34  32  92 N5        30.00S FOG     WCI  30
NEBRASKA CITY  LGT SNOW  32  32 100 NW5       30.01R WCI  27
PLATTSMOUTH    LGT SNOW  32  31  94 N6        30.00F WCI  26
$$

NEZ044-045-051>053-067-270500-
OMAHA AREA

CITY           SKY/WX    TMP DP  RH WIND       PRES   REMARKS
OMAHA EPPLEY   LGT SNOW  32  31  96 N8        30.03S FOG     WCI  25
BLAIR          LGT SNOW  32  30  93 N8        30.00F WCI  24
FREMONT        LGT SNOW  31  29  94 NW7       30.04R WCI  24
MILLARD        LGT RAIN  32  31  95 N7        30.01F WCI  26
OFFUTT AFB     FLURRIES  32  31  96 N3        30.00F
PLATTSMOUTH    LGT SNOW  32  31  94 N6        30.00F WCI  26
WAHOO          LGT SNOW  31  28  90 N12       30.03R WCI  21
$$



USA.gov is the U.S. government's official web portal to all federal, state and local government web resources and services.